{"data":{"norad_id":69683,"intl_designator":"2026-145G","name":"STARLINK-37990","alt_names":[],"object_type":"PAYLOAD","status":"ACTIVE","operator":null,"country":"US","launch_date":"2026-06-25","launch_site_code":"AFWTR","launch_vehicle":null,"mission":null,"orbit_class":"UNKNOWN","rcs_meters":null,"size_class":null,"mass_kg":null,"dimensions":null,"purposes":["comms"],"wikipedia_slug":null,"has_3d_model":false,"image_url":null,"decayed_at":null,"tle_current":{"epoch":"2026-09-20T03:05:17.236608Z","epoch_age_seconds":53752,"freshness":"FRESH","line1":"1 69683U 26145G   26263.12867172  .00005379  00000+0  16884-3 0  9996","line2":"2 69683  97.2853 109.7583 0001927  86.9557 273.1907 15.33441464 13480","mean_motion":15.33441464,"eccentricity":0.0001927,"inclination_deg":97.2853,"raan_deg":109.7583,"arg_perigee_deg":86.9557,"mean_anomaly_deg":273.1907,"bstar":0.00016884,"rev_number":1348,"period_min":93.906421197438,"perigee_km":464.23491594961,"apogee_km":466.87247434351,"semimajor_km":6843.6906951466,"source":"CELESTRAK","updated_at":"2026-09-20T09:00:44.253094Z"}}}